Location: Casalserugo
(45.3167°N, 11.9000°E)
Time: 05:41:19
(UTC+00:00)

Daily predictions for brighter satellites

Satellite Brightness Start Highest point End
(mag) Time Altitude Azimuth Time Altitude Azimuth Time Altitude Azimuth
Okean 1 Rocket 4.3 00:09:30 40° N 00:09:30 40° N 00:12:21 10° N
SJ 16-02 2.6 00:09:53 40° NNE 00:09:53 40° NNE 00:12:46 10° NNE
Cosmos 2263 Rocket 3.5 00:14:58 27° E 00:14:58 27° E 00:19:24 10° NE
SL-16 R/B 2.5 00:09:07 10° NNW 00:13:48 59° NW 00:13:48 59° NW
Cosmos 2142 Rocket 4.4 00:17:47 84° S 00:18:03 90° ESE 00:24:30 10° N
Cosmos 1428 Rocket 4.5 00:12:44 10° NNW 00:18:53 69° W 00:18:53 69° W
MOZ.5/SAFIR/RUBIN 5/SL-8 4.3 00:22:13 56° NE 00:22:13 56° NE 00:26:20 10° N
Cosmos 1937 Rocket 4.0 00:27:08 52° E 00:27:08 52° E 00:31:54 10° NNE
SL-19 R/B 4.2 00:21:09 10° NNE 00:26:52 76° E 00:26:52 76° E
Cosmos 990 Rocket 4.1 00:29:47 70° NE 00:29:47 70° NE 00:34:23 10° NNE
Cosmos 2297 Rocket 3.3 00:28:55 32° WNW 00:29:36 33° NW 00:34:43 10° N
Cosmos 158 Rocket 4.4 00:25:38 10° NNW 00:29:59 55° NW 00:29:59 55° NW
Okean 1-7 Rocket 4.5 00:27:29 10° N 00:31:14 46° NE 00:31:14 46° NE
ADEOS II 3.9 00:28:29 10° NE 00:32:22 20° E 00:33:36 19° ESE
Cosmos 1455 Rocket 4.0 00:35:30 45° ENE 00:35:30 45° ENE 00:39:06 10° NNE
ATLAS CENTAUR R/B 3.9 00:37:35 13° E 00:37:35 13° E 00:38:39 10° ENE
Cosmos 2266 Rocket 4.3 00:30:36 10° N 00:36:52 59° ENE 00:38:25 46° SE
USA 229 DEB 3.4 00:36:45 73° S 00:37:23 82° SE 00:44:15 10° NE
USA 229 3.4 00:36:53 74° S 00:37:30 82° SE 00:44:20 10° NE
Cosmos 2112 Rocket 4.4 00:32:37 10° NNW 00:36:46 55° NW 00:36:46 55° NW
UNK 4.1 00:38:59 60° NE 00:38:59 60° NE 00:43:22 10° N
Cosmos 1726 4.5 00:39:49 19° ENE 00:39:49 19° ENE 00:41:51 10° NE
Cosmos 2237 Rocket 4.4 00:40:13 10° WNW 00:41:12 13° WNW 00:41:12 13° WNW
Cosmos 1898 Rocket 3.5 00:43:57 77° NNW 00:43:57 77° NNW 00:48:53 10° NNE
NOSS 2-3 (C) 4.2 00:48:09 53° ENE 00:48:09 53° ENE 00:52:13 10° NE
GEOS 3 Rocket 4.0 00:42:03 10° NE 00:47:19 52° ESE 00:47:19 52° ESE
NOSS 3-1 (A) 3.2 00:48:36 71° SE 00:48:46 72° ESE 00:55:02 10° NE
Cosmos 1892 Rocket 4.3 00:44:29 10° N 00:47:50 50° NNW 00:47:50 50° NNW
Meteor 1-24 Rocket 3.6 00:44:11 10° NNW 00:49:06 66° WNW 00:49:06 66° WNW
IRAS Rocket 4.1 00:49:56 73° SE 00:50:30 85° ENE 00:56:09 10° NNW
Cosmos 1680 Rocket 4.4 00:47:58 10° NNW 00:51:28 36° WNW 00:51:28 36° WNW
Cosmos 1461 4.3 00:55:29 33° NW 00:55:29 33° NW 00:59:37 10° NNE
Cosmos 1603 3.9 00:49:41 10° NNW 00:55:26 69° ENE 00:57:17 43° SE
Cosmos 1340 Rocket 3.5 01:07:07 52° N 01:07:07 52° N 01:10:10 10° N
CZ-2D R/B 2.0 01:01:53 10° NNE 01:07:25 86° WNW 01:08:00 72° SSW
Cosmos 1758 3.8 01:08:43 57° NNE 01:08:43 57° NNE 01:11:59 10° N
SL-16 R/B 2.5 01:09:25 59° SSW 01:10:23 68° WSW 01:16:39 10° NNW
Timation 1 Rocket 4.3 01:10:12 61° WSW 01:11:08 72° WNW 01:17:06 10° NNE
SL-24 R/B 4.3 01:12:55 78° SW 01:13:11 82° W 01:18:31 10° N
Cosmos 1943 3.2 01:08:21 10° NNW 01:14:00 80° ENE 01:16:10 39° SE
USA 215 4.4 01:09:14 10° ENE 01:14:41 27° SE 01:16:30 24° SSE
Cosmos 1626 4.4 01:14:13 10° NNW 01:15:17 16° NW 01:15:17 16° NW
Cosmos 1655 Rocket 4.1 01:11:43 10° NNW 01:17:46 54° W 01:18:26 51° WSW
Cosmos 2227 Rocket 4.1 01:18:31 15° WNW 01:20:42 19° NW 01:24:39 10° N
Cosmos 2292 Rocket 4.4 01:14:44 10° NNW 01:21:30 57° W 01:22:07 54° WSW
Cosmos 1544 Rocket 3.6 01:22:37 71° WNW 01:22:37 71° WNW 01:26:54 10° N
Cosmos 1470 3.5 01:24:18 44° NW 01:24:18 44° NW 01:27:26 10° N
Cosmos 1953 2.6 01:23:54 60° E 01:23:54 60° E 01:27:55 10° NNE
IRS-1D 3.7 01:19:20 10° NNE 01:24:27 66° ESE 01:25:39 50° SSE
NPP 3.6 01:20:49 10° N 01:26:12 71° WNW 01:27:05 59° SW
AQUA 3.7 01:29:11 10° N 01:33:56 69° WNW 01:34:26 64° WSW
Atlas Centaur 2 4.0 01:38:02 18° SSE 01:38:02 18° SSE 01:41:51 10° SE
Exosat Rocket 4.4 01:36:53 39° SW 01:39:52 65° WNW 01:45:51 10° NNE
Resurs 1-4 Rocket 2.6 01:35:43 10° N 01:40:42 44° WNW 01:41:36 40° W
Cosmos 1602 Rocket 3.4 01:39:32 10° N 01:43:54 83° W 01:44:26 67° S
Meteor 2-21 Rocket 4.4 01:38:25 10° N 01:44:31 84° E 01:48:18 25° SSE
Cosmos 2098 Rocket 4.4 01:39:55 10° NNW 01:45:18 43° W 01:46:33 39° WSW
NOSS 2-3 (E) 4.3 01:44:49 38° WNW 01:45:47 44° NW 01:50:43 10° NNE
SJ 16-02 3.6 01:46:52 12° WNW 01:47:33 13° NW 01:49:34 10° NNW
USA 267 4.5 01:41:44 10° E 01:47:45 41° NNE 01:53:47 10° NW
IDEFIX/ARIANE 42P 3.9 01:44:43 10° NNE 01:49:29 35° E 01:53:20 14° SSE
Meteor 2-14 Rocket 4.3 01:43:45 10° NNW 01:49:48 75° W 01:52:41 33° S
NOSS 3-1 (C) 4.5 01:48:09 23° W 01:50:57 35° NW 01:56:58 10° NNE
Cosmos 1908 3.4 01:56:15 49° SSE 01:57:09 69° E 02:01:04 10° NNE
Cosmos 1048 Rocket 3.9 01:52:07 10° NNW 01:57:18 87° WSW 02:01:22 17° SSE
Cosmos 2263 Rocket 2.6 01:56:40 36° WSW 01:58:25 48° WNW 02:03:49 10° NNE
IRS-P3 4.1 01:54:03 10° NNE 01:59:27 86° ESE 02:01:52 34° SSW
Cosmos 2298 Rocket 4.0 01:57:57 43° SW 01:59:42 72° WNW 02:05:03 10° NNE
Cosmos 2228 3.8 01:59:31 25° SSE 02:01:49 51° E 02:06:06 10° NNE
Meteor 1-16 Rocket 4.1 02:01:58 35° SSW 02:04:21 82° W 02:10:01 10° N
Cosmos 372 Rocket 4.5 02:04:37 36° WSW 02:06:12 47° WNW 02:11:17 10° N
Meteor 1-28 Rocket 3.1 02:06:34 39° SSE 02:07:54 89° WSW 02:11:45 10° NNW
COBE Rocket 4.4 02:08:32 34° W 02:08:41 34° W 02:12:56 10° NNW
SL-08 R/B 3.3 02:05:26 22° S 02:08:43 83° WSW 02:13:41 10° NNW
ADEOS II 2.3 02:07:15 10° N 02:12:25 57° WNW 02:14:32 34° SW
Cosmos 1356 Rocket 4.2 02:10:31 21° SSE 02:13:01 48° E 02:16:59 10° NNE
Cosmos 1626 Rocket 4.5 02:09:23 10° NNW 02:13:03 30° W 02:13:03 30° W
Cosmos 2285 Rocket 4.0 02:10:59 31° SW 02:14:08 72° WNW 02:20:27 10° NNE
Cosmos 1726 3.3 02:14:19 27° WNW 02:14:19 27° WNW 02:17:23 10° NNW
Spot 4 Rocket 4.5 02:09:07 10° NNE 02:14:14 59° ESE 02:18:03 18° S
CZ-2C R/B 4.3 02:10:54 10° NNE 02:14:20 32° E 02:17:08 13° SSE
ATLAS CENTAUR R/B 1.5 02:13:46 43° WSW 02:14:48 60° NW 02:18:41 10° NNE
CZ-4B R/B 4.0 02:10:52 10° N 02:15:16 39° WNW 02:16:40 31° WSW
Cosmos 1900 4.4 02:11:20 10° NNW 02:16:31 86° ENE 02:21:40 10° SSE
Cosmos 1300 4.1 02:14:37 14° SSE 02:17:30 36° E 02:21:02 10° NNE
Cosmos 1553 Rocket 3.9 02:15:29 22° S 02:19:35 87° W 02:25:46 10° N
NOSS 2-2 (C) 4.4 02:18:19 23° SSE 02:19:47 32° ESE 02:23:10 10° NE
Cosmos 1844 Rocket 3.0 02:17:42 21° S 02:21:19 61° ESE 02:26:49 10° NNE
ERS-2 4.1 02:18:41 10° SE 02:21:55 30° ENE 02:25:10 10° N
NOSS 8 (H) 4.1 02:24:24 52° SSW 02:25:03 78° SE 02:28:04 10° NE
CZ-4C R/B 4.2 02:22:29 10° SE 02:25:37 41° ENE 02:28:51 10° N
Meteor 1-11 4.2 02:20:29 10° N 02:26:15 90° E 02:31:55 10° S
SL-08 ROCKET BODY 4.3 02:23:24 10° N 02:29:29 89° W 02:35:24 10° S
Cosmos 2084 4.2 02:28:47 27° W 02:30:44 43° NW 02:35:00 10° NNE
Cosmos 1745 Rocket 4.0 02:24:57 10° N 02:31:15 89° E 02:37:27 10° S
Lacrosse 5 rocket 4.1 02:31:01 10° SE 02:32:40 12° ESE 02:34:18 10° E
ARIANE 5 R/B 2.6 02:27:37 10° N 02:32:51 69° WNW 02:36:11 22° SSW
Cosmos 1758 Rocket 3.8 02:31:57 10° NNW 02:36:05 45° W 02:38:14 25° SSW
SeaSat 1 4.5 02:32:51 10° NE 02:36:45 23° ESE 02:40:37 10° SSE
Cosmos 494 Rocket 4.1 02:40:37 10° NNW 02:45:38 52° WSW 02:50:40 10° S
Cosmos 2058 Rocket 3.3 02:41:30 11° S 02:45:47 74° E 02:50:12 10° NNE
CZ-2D R/B 4.1 02:43:41 10° NNW 02:46:38 15° NW 02:49:18 11° W
H-2A R/B 1.9 02:42:37 10° SSE 02:46:42 84° ENE 02:50:50 10° NNW
S3M 4.1 02:45:35 13° SSW 02:51:27 70° W 02:57:51 10° N
Cosmos 1703 4.4 02:48:13 10° NNW 02:51:31 26° W 02:52:42 22° WSW
CZ-2C R/B 3.5 02:49:02 10° NNE 02:53:24 40° E 02:57:49 10° SSE
Cosmos 1825 Rocket 4.1 02:50:38 10° NNW 02:54:35 36° W 02:57:30 16° SSW
SL-16 R/B 4.4 02:54:31 10° W 02:55:06 10° W 02:56:17 10° WNW
Landsat 5 3.3 02:51:39 10° SSE 02:55:39 84° WSW 02:59:50 10° NNW
Cosmos 1125 Rocket 4.2 02:54:00 19° WSW 02:57:20 40° WNW 03:02:18 10° N
USA 215 3.3 02:51:38 10° NE 02:58:13 90° W 03:03:50 15° SW
Cosmos 1953 4.4 02:59:36 11° W 03:00:43 12° WNW 03:02:28 10° NW
SL-24 R/B 4.5 02:57:40 10° S 03:03:01 61° WSW 03:07:36 10° NNW
CZ-4B R/B 3.3 03:01:44 10° SE 03:04:36 31° ENE 03:07:25 10° N
Cosmos 1892 3.8 03:01:11 10° N 03:04:54 47° ENE 03:08:35 10° SSE
Cosmos 1953 Rocket 4.0 03:01:53 10° NNW 03:06:07 42° W 03:10:18 10° SSW
CZ-2D R/B 4.2 03:06:25 10° N 03:10:02 34° WNW 03:12:52 15° SW
Cosmos 1709 Rocket 3.9 03:04:52 10° N 03:11:02 82° W 03:17:08 10° S
PAYLOAD A 4.2 03:10:38 10° NNE 03:15:56 80° ESE 03:21:01 10° S
USA 238 DEB 4.2 03:14:45 10° NW 03:21:59 72° NE 03:29:28 10° SE
USA 238 4.2 03:14:51 10° NW 03:22:05 72° NE 03:29:34 10° SE
Atlas Centaur 2 4.0 03:20:39 11° SW 03:25:30 23° S 03:31:19 10° SE
NOSS 2-2 (E) 3.8 03:22:45 12° WSW 03:25:52 43° NW 03:29:47 10° NNE
NOSS 2-2 (D) 3.5 03:23:29 12° SW 03:26:41 53° NW 03:30:35 10° NNE
CENTAUR R/B 4.0 03:20:22 10° NW 03:28:14 59° NE 03:36:53 10° ESE
IDEFIX/ARIANE 42P 3.4 03:24:23 10° N 03:29:01 33° WNW 03:33:39 10° SW
USA 267 3.3 03:23:49 10° SE 03:30:23 89° NE 03:36:58 10° NW
ADEOS 4.2 03:25:43 10° NNE 03:30:54 61° ESE 03:36:03 10° S
Cosmos 2082 Rocket 4.2 03:28:24 10° N 03:33:30 33° NE 03:38:33 10° ESE
MSX 4.3 03:29:30 10° N 03:34:59 46° WNW 03:40:27 10° SW
PSLV R/B 3.6 03:31:32 10° N 03:35:52 64° WNW 03:40:09 10° SSW
COSMOS 2406 3.5 03:32:35 10° NNW 03:38:19 78° ENE 03:43:59 10° SSE
Cosmos 1825 3.3 03:35:53 10° N 03:39:33 48° ENE 03:43:11 10° SSE
ADEOS Rocket 3.8 03:33:16 10° SSE 03:41:00 81° ENE 03:48:45 10° NNW
Cosmos 2315 Rocket 4.2 03:34:55 10° SSW 03:41:09 59° WNW 03:47:28 10° N
Meteor 2-1 Rocket 4.5 03:35:17 10° S 03:41:10 85° E 03:47:07 10° NNE
Cosmos 1844 4.4 03:38:04 10° SW 03:43:31 42° NW 03:48:59 10° NNE
Cosmos 2263 Rocket 4.4 03:42:25 10° NW 03:43:49 11° NW 03:45:13 10° NNW
